Sexton Summit, OR

1:07 PM PST on December 11, 2017 (GMT -0800)
Sexton Summit

Weather History for KSXT - February, 2013

Change the Weather History Date:

Wednesday, February 13, 2013

  Actual Average Record
Temperature  
Mean Temperature 38 °F -  
Max Temperature 42 °F 40 °F 55 °F (2015)
Min Temperature 33 °F 30 °F 35 °F (2016)
Degree Days  
Heating Degree Days 28    
Moisture  
Dew Point 34 °F    
Average Humidity 92    
Maximum Humidity 100    
Minimum Humidity 76    
Precipitation  
Precipitation 0.00 in - - ()
Sea Level Pressure  
Sea Level Pressure 30.43 in    
Wind  
Wind Speed 5 mph (NNE)    
Max Wind Speed 12 mph    
Max Gust Speed 17 mph    
Visibility 5 miles    
Events Fog    
Averages and records for this station are not official NWS values.
T = Trace of Precipitation, MM = Missing Value Source: NWS Daily Summary

Daily Weather History Graph

Daily Weather History Graph

Search for Another Location

Airport or City:

Trip Planner

Search our weather history database for the weather conditions in past years. The results will help you decide how hot, cold, wet, or windy it might be!

Date:

Astronomy

Feb. 13, 2013 Rise Set
Actual Time 7:12 AM PST 5:43 PM PST
Civil Twilight 6:43 AM PST 6:12 PM PST
Nautical Twilight 6:10 AM PST 6:45 PM PST
Astronomical Twilight 5:37 AM PST 7:18 PM PST
Moon 8:38 AM PST (2/13) 9:58 PM PST (2/13)
Length of Visible Light 11h 28m
Length of Day
10h 30m
Waxing Crescent, 14% of the Moon is Illuminated
Feb 13
Waxing Crescent
Feb 17
First Quarter
Feb 25
Full
Mar 4
Last Quarter
Mar 11
New

Hourly Weather History & Observations

Time (PST) Temp. Windchill Dew Point Humidity Pressure Visibility Wind Dir Wind Speed Gust Speed Precip Events Conditions
12:07 AM 33.8 °F 28.6 °F 33.8 °F 100% 30.41 in 2.5 mi North 5.8 mph - N/A   Partly Cloudy
12:21 AM 33.8 °F 28.6 °F 33.8 °F 100% 30.41 in 10.0 mi North 5.8 mph - N/A   Clear
12:56 AM 34.0 °F 28.0 °F 33.1 °F 96% 30.47 in 10.0 mi NNW 6.9 mph - N/A   Clear
1:21 AM 33.8 °F 30.8 °F 32.0 °F 93% 30.41 in 1.5 mi North 3.5 mph - N/A   Mostly Cloudy
1:28 AM 33.8 °F - 32.0 °F 93% 30.40 in 0.5 mi Calm Calm - N/A Fog Fog
1:33 AM 35.6 °F - 30.2 °F 81% 30.40 in 3.0 mi Calm Calm - N/A   Mostly Cloudy
1:56 AM 36.0 °F 30.3 °F 32.0 °F 86% 30.45 in 10.0 mi South 6.9 mph - N/A   Mostly Cloudy
2:56 AM 36.0 °F 33.3 °F 32.0 °F 86% 30.45 in 10.0 mi South 3.5 mph - N/A   Scattered Clouds
3:56 AM 37.0 °F - 32.0 °F 82% 30.45 in 10.0 mi Calm Calm - N/A   Overcast
4:56 AM 36.0 °F 33.3 °F 30.9 °F 82% 30.44 in 10.0 mi East 3.5 mph - N/A   Overcast
5:56 AM 36.0 °F - 30.9 °F 82% 30.45 in 10.0 mi Calm Calm - N/A   Overcast
6:56 AM 36.0 °F - 30.9 °F 82% 30.45 in 10.0 mi Calm Calm - N/A   Mostly Cloudy
7:56 AM 37.0 °F - 30.9 °F 79% 30.45 in 10.0 mi Calm Calm - N/A   Clear
8:43 AM 33.8 °F 28.6 °F 30.2 °F 87% 30.40 in 0.5 mi North 5.8 mph - N/A Fog Fog
8:56 AM 33.1 °F 26.9 °F 32.0 °F 96% 30.48 in 0.2 mi North 6.9 mph - N/A Fog Fog
9:38 AM 33.8 °F 27.0 °F 33.8 °F 100% 30.41 in 1.2 mi NNE 8.1 mph - N/A   Mostly Cloudy
9:40 AM 35.6 °F 29.9 °F 33.8 °F 93% 30.41 in 2.0 mi NNE 6.9 mph - N/A   Mostly Cloudy
9:46 AM 35.6 °F 29.2 °F 33.8 °F 93% 30.42 in 9.0 mi NNE 8.1 mph - N/A   Scattered Clouds
9:56 AM 37.0 °F 31.6 °F 33.1 °F 86% 30.48 in 10.0 mi Variable 6.9 mph - N/A   Partly Cloudy
10:23 AM 37.4 °F 34.9 °F 33.8 °F 87% 30.42 in 1.8 mi Variable 3.5 mph - N/A   Partly Cloudy
10:32 AM 39.2 °F 33.6 °F 33.8 °F 81% 30.42 in 5.0 mi NNE 8.1 mph - N/A   Haze
10:39 AM 37.4 °F 32.1 °F 33.8 °F 87% 30.42 in 2.5 mi North 6.9 mph - N/A   Partly Cloudy
10:41 AM 35.6 °F 30.7 °F 33.8 °F 93% 30.42 in 1.2 mi North 5.8 mph - N/A   Scattered Clouds
10:43 AM 35.6 °F 29.9 °F 33.8 °F 93% 30.42 in 0.8 mi North 6.9 mph - N/A   Mist
10:56 AM 35.1 °F 29.3 °F 33.1 °F 92% 30.49 in 0.2 mi North 6.9 mph - N/A Fog Fog
11:20 AM 37.4 °F 32.1 °F 33.8 °F 87% 30.43 in 1.0 mi NNE 6.9 mph - N/A   Mist
11:23 AM 37.4 °F 33.8 °F 33.8 °F 87% 30.43 in 4.0 mi NE 4.6 mph - N/A   Mostly Cloudy
11:33 AM 39.2 °F 35.9 °F 33.8 °F 81% 30.43 in 10.0 mi ENE 4.6 mph - N/A   Scattered Clouds
11:56 AM 41.0 °F 39.0 °F 34.0 °F 76% 30.47 in 10.0 mi Variable 3.5 mph - N/A   Clear
12:56 PM 39.0 °F - 36.0 °F 89% 30.47 in 10.0 mi Calm Calm - N/A   Scattered Clouds
1:56 PM 41.0 °F 39.0 °F 36.0 °F 82% 30.44 in 10.0 mi Variable 3.5 mph - N/A   Partly Cloudy
2:56 PM 42.1 °F 40.2 °F 35.1 °F 76% 30.43 in 10.0 mi Variable 3.5 mph - N/A   Clear
3:56 PM 39.9 °F 37.8 °F 36.0 °F 86% 30.43 in 10.0 mi Variable 3.5 mph - N/A   Mostly Cloudy
4:56 PM 37.9 °F 33.5 °F 36.0 °F 93% 30.44 in 10.0 mi NNW 5.8 mph - N/A   Overcast
5:28 PM 37.4 °F 32.8 °F 35.6 °F 93% 30.38 in 10.0 mi NNW 5.8 mph - N/A   Scattered Clouds
5:56 PM 37.0 °F 31.6 °F 35.1 °F 93% 30.43 in 10.0 mi North 6.9 mph - N/A   Clear
6:29 PM 37.4 °F 32.1 °F 35.6 °F 93% 30.39 in 9.0 mi North 6.9 mph - N/A   Scattered Clouds
6:39 PM 35.6 °F 29.2 °F 35.6 °F 100% 30.39 in 4.0 mi North 8.1 mph - N/A   Mostly Cloudy
6:56 PM 37.0 °F 31.6 °F 36.0 °F 96% 30.45 in 9.0 mi North 6.9 mph - N/A   Overcast
7:56 PM 37.0 °F 31.0 °F 36.0 °F 96% 30.45 in 10.0 mi North 8.1 mph - N/A   Overcast
8:12 PM 35.6 °F 28.6 °F 35.6 °F 100% 30.40 in 1.8 mi North 9.2 mph - N/A   Overcast
8:21 PM 37.4 °F 31.4 °F 35.6 °F 93% 30.40 in 4.0 mi North 8.1 mph 17.3 mph N/A   Overcast
8:30 PM 35.6 °F 30.7 °F 35.6 °F 100% 30.40 in 5.0 mi North 5.8 mph - N/A   Mostly Cloudy
8:37 PM 35.6 °F 30.7 °F 35.6 °F 100% 30.41 in 1.5 mi Variable 5.8 mph - N/A   Mostly Cloudy
8:41 PM 35.6 °F 30.7 °F 35.6 °F 100% 30.41 in 0.8 mi Variable 5.8 mph - N/A   Mostly Cloudy
8:48 PM 35.6 °F 30.7 °F 35.6 °F 100% 30.41 in 0.2 mi Variable 5.8 mph - N/A Fog Fog
8:56 PM 36.0 °F 32.1 °F 35.1 °F 97% 30.47 in 0.2 mi Variable 4.6 mph - N/A Fog Fog
9:28 PM 35.6 °F 32.8 °F 35.6 °F 100% 30.41 in 0.2 mi North 3.5 mph - N/A Fog Fog
9:56 PM 36.0 °F 29.6 °F 35.1 °F 97% 30.47 in 0.5 mi NNE 8.1 mph - N/A Fog Fog
10:17 PM 35.6 °F 27.5 °F 35.6 °F 100% 30.42 in 1.8 mi North 11.5 mph 16.1 mph N/A   Overcast
10:19 PM 35.6 °F 29.2 °F 35.6 °F 100% 30.42 in 3.0 mi NNE 8.1 mph 16.1 mph N/A   Overcast
10:26 PM 35.6 °F 29.2 °F 35.6 °F 100% 30.42 in 10.0 mi NNE 8.1 mph - N/A   Overcast
10:56 PM 36.0 °F 28.5 °F 34.0 °F 93% 30.47 in 10.0 mi NE 10.4 mph - N/A   Overcast
11:07 PM 35.6 °F 29.2 °F 35.6 °F 100% 30.42 in 2.5 mi NNE 8.1 mph - N/A   Mostly Cloudy
11:09 PM 35.6 °F 29.9 °F 35.6 °F 100% 30.42 in 1.2 mi NNE 6.9 mph - N/A   Mostly Cloudy
11:14 PM 35.6 °F 29.9 °F 35.6 °F 100% 30.42 in 0.8 mi NNE 6.9 mph - N/A   Mostly Cloudy
11:33 PM 35.6 °F 31.7 °F 35.6 °F 100% 30.42 in 0.2 mi Variable 4.6 mph - N/A Fog Fog
11:56 PM 36.0 °F 32.1 °F 34.0 °F 93% 30.46 in 0.2 mi Variable 4.6 mph - N/A Fog Fog